Regional Weather Roundup
Issued by NWS

Home | Current Version | Previous Version | Text Only | Print | Product List | Glossary On
Versions: 1 2 3 4 5 6 7 8 9 10 11 12 13 14 15 16 17 18 19 20 21 22 23 24 25 26 27 28 29 30 31 32 33 34 35 36 37 38 39 40 41 42 43 44 45 46 47 48 49 50
000
ASUS43 KMKX 040521
RWRWI

WISCONSIN REGIONAL WEATHER ROUNDUP
NATIONAL WEATHER SERVICE MILWAUKEE/SULLIVAN WI
1200 AM CDT TUE AUG 04 2015

NOTE: "FAIR" INDICATES FEW OR NO CLOUDS BELOW 12,000 FEET WITH NO
SIGNIFICANT WEATHER AND/OR OBSTRUCTIONS TO VISIBILITY.

WIZ001-002-006>008-014>016-023>028-040600-
NORTHWEST WISCONSIN

CITY           SKY/WX    TMP DP  RH WIND       PRES   REMARKS
SUPERIOR ARPT  CLEAR     54  50  85 CALM      29.90S
ASHLAND        CLOUDY    61  55  81 VRB3      29.89R
HAYWARD        CLEAR     61  52  72 CALM      29.92R
SIREN          PTCLDY    59  52  79 CALM      29.93S
CUMBERLAND     PTCLDY    55  52  88 W3        29.93S
RICE LAKE      PTCLDY    61  54  77 CALM      29.94R
CHETEK         PTCLDY    63  55  75 W6        29.92S
LADYSMITH      CLEAR     62  54  75 W8        29.93R
EAU CLAIRE     MOCLDY    64  53  67 NW6       29.90R
MENOMONIE      PTCLDY    63  55  74 W5        29.92S
NEW RICHMOND   CLEAR     59  53  80 N6        29.94R
OSCEOLA        PTCLDY    60  55  85 CALM      29.97R
$$

WIZ003>005-009-010-017-018-040600-
NORTH CENTRAL WISCONSIN

CITY           SKY/WX    TMP DP  RH WIND       PRES   REMARKS
MANITOWISH WTR CLOUDY    57  57 100 W5        29.89S
ARBOR VITAE    MOCLDY    59  57  91 NW6       29.89F
WOODRUFF       MOCLDY    59  57  91 NW6       29.89F
RHINELANDER    CLOUDY    60  55  83 CALM      29.90R
EAGLE RIVER    DRIZZLE   57  56  98 NW6       29.89R
LAND O LAKES   CLOUDY    57  55  93 W7        29.89S
PHILLIPS       MOCLDY    59  56  88 CALM      29.90R
TOMAHAWK       CLOUDY    57  55  90 CALM      29.91R
MEDFORD        CLOUDY    61  55  81 W3        29.91R
MERRILL        NOT AVBL
$$

WIZ029-030-035-036-043>047-040600-
CENTRAL WISCONSIN

CITY           SKY/WX    TMP DP  RH WIND       PRES   REMARKS
WAUSAU         CLOUDY    65  55  70 NW7       29.88S
MOSINEE        CLOUDY    61  55  82 W5        29.90S
MARSHFIELD     CLOUDY    61  53  75 SW3       29.90S
STEVENS POINT  CLOUDY    62  53  73 W3        29.90S
WAUPACA        CLEAR     60  54  80 CALM      29.89F
WAUTOMA        CLEAR     57  52  84 CALM      29.91S
WISC RAPIDS    CLOUDY    59  53  80 CALM      29.91S
CAMP DOUGLAS   MOCLDY    53  53 100 CALM      29.91S
$$

WIZ011>013-019>022-031-037>040-048>050-040600-
NORTHEAST WISCONSIN

CITY           SKY/WX    TMP DP  RH WIND       PRES   REMARKS
ANTIGO         PTCLDY    56  54  91 CALM      29.90R
SHAWANO        CLEAR     60  56  84 CALM      29.88S
OCONTO         MOCLDY    58  58 100 W5        29.85S
STURGEON BAY   CLOUDY    61  54  77 SW3       29.87S
GREEN BAY      CLEAR     60  56  86 W6        29.87S
MANITOWOC      MOCLDY    66  56  70 MISG      29.88R
APPLETON       CLEAR     59  50  72 W7        29.89S
CLINTONVILLE   CLEAR     57  52  82 SW5       29.88R
OSHKOSH        CLEAR     62  53  72 W3        29.89S
$$

WIZ032>034-041-042-053>061-040600-
SOUTHWEST WISCONSIN

CITY           SKY/WX    TMP DP  RH WIND       PRES   REMARKS
LA CROSSE      CLEAR     63  55  75 SE5       29.91S
SPARTA         CLOUDY    56  53  89 CALM      29.93S
VIROQUA        CLEAR     56  54  91 CALM      29.94S
BOSCOBEL       CLEAR     56  53  90 CALM      29.94R
PRAIRIE DU CHI CLEAR     59  54  83 CALM      29.94R
PLATTEVILLE    CLEAR     63  54  73 W3        29.95R
$$

WIZ056-057-062-063-064-067-068-040600-
SOUTH CENTRAL WISCONSIN

CITY           SKY/WX    TMP DP  RH WIND       PRES   REMARKS
REEDSBURG      CLEAR     58  54  86 CALM      29.92S
BARABOO/DELLS  CLEAR     59  50  71 CALM      29.92S
LONE ROCK      CLEAR     57  54  89 CALM      29.93S
MINERAL POINT  CLEAR     63  52  67 CALM      29.94S
MADISON        CLEAR     65  52  62 W5        29.92R
MIDDLETON      CLEAR     58  54  86 CALM      29.93S
WATERTOWN      CLEAR     57  56  95 CALM      29.91S
MONROE         CLEAR     64  54  68 W8        29.94R
JANESVILLE     PTCLDY    63  54  72 CALM      29.92S
$$

WIZ051-052-058>065-066-070>072-040600-
SOUTHEAST WISCONSIN

CITY           SKY/WX    TMP DP  RH WIND       PRES   REMARKS
MILWAUKEE      PTCLDY    71  50  47 NW6       29.90R
WAUKESHA       CLEAR     63  50  63 W6        29.93R
MILWAUKEE/TIMM CLEAR     64  50  59 NW3       29.91S
RACINE         PTCLDY    66  52  60 W5        29.91S
BURLINGTON     CLEAR     58  52  79 W3        29.91S
KENOSHA        PTCLDY    62  54  74 W3        29.91R
FOND DU LAC    CLEAR     62  55  77 W3        29.90R
SHEBOYGAN      FAIR      61  55  81 W6        29.89R
WEST BEND      CLEAR     63  52  67 CALM      29.90S
JUNEAU         CLEAR     57  53  85 CALM      29.92S
$$

LSZ147-162-040600-
LAKE SUPERIOR

STATION/POSITION TIME  TEMP    WIND        PRES    WAVE
                       AIR SEA DIR/SP/G            HT/PER
                 (UTC) (F)     (DEG/KT/KT) (MB)    (FT/S)
W MID LAKE BUOY  0450   58 56  280/ 10/ 12 1010.1R   2/ 4
DEVILS ISLAND    0500   57     260/ 11/ 12 1011.2S
PORT WING        0400   63     260/  7/ 10 1011.9
SAXON HARBOR     0440   63     210/  3     1011.2S
$$

LMZ867-665-643>646-040600-
LAKE MICHIGAN

STATION/POSITION TIME  TEMP    WIND        PRES    WAVE
                       AIR SEA DIR/SP/G            HT/PER
                 (UTC) (F)     (DEG/KT/KT) (MB)    (FT/S)
CHAMBERS ISLAND  0400   65     230/  2/  4 1010.5S
S GREEN BAY BUOY 0500   67 71  260/  8/ 10 1012.2
N MID LAKE BUOY  0450   65 68  200/  4/  4 1009.8S   1
NORTHPORT PIER   0400   68     290/  3/  6 1010.2S
SISTER BAY       0418   69     310/  9/ 10   N/A
ALGOMA LAKESHORE 0412             CALM       N/A
KEWAUNEE LAKESHO 0400   63     290/  3/  4 1010.5R
SHEBOYGAN LAKESH 0500   68     270/  8/  9 1012.0R
PORT WASHINGTON  0440   68     290/  3/  5 1012.9R
ATWATER BUOY     0500   67 64  280/  6/  6 1013.8R
MILWAUKEE LAKESH 0500   71     300/  4/  7   N/A
KENOSHA   LAKESH 0500   69     280/  8/ 11 1012.2R
$$

TC  - TEMPERATURE IN CELSIUS
VSB - VISIBILITY IN STATUTE MILES
WCI - WIND CHILL INDEX
HX  - HEAT INDEX



USA.gov is the U.S. government's official web portal to all federal, state and local government web resources and services.